This is the latest recevied weather packets stored in our database for station/object W8RD. If no packets are shown the sender has not sent any weather packets the latest 10 day(s).
| Time | Temp. | Humidity | Pressure | Rain* | Wind** | Luminosity | Snow |
|---|---|---|---|---|---|---|---|
| 1777881216 | 20° C | 78% | 1016.9 hPa | 0 mm | - | 0 W/m² | - |
| 1777880616 | 20° C | 78% | 1017.1 hPa | 0 mm | - | 0 W/m² | - |
| 1777880012 | 20° C | 77% | 1017 hPa | 0 mm | - | 0 W/m² | - |
| 1777879413 | 20° C | 77% | 1017.5 hPa | 0 mm | - | 0 W/m² | - |
| 1777878813 | 20° C | 77% | 1017.3 hPa | 0 mm | - | 0 W/m² | - |
| 1777878212 | 20° C | 78% | 1017.5 hPa | 0 mm | - | 0 W/m² | - |
| 1777877611 | 19.44° C | 79% | 1017.7 hPa | 0 mm | - | 0 W/m² | - |
| 1777877011 | 19.44° C | 79% | 1017.8 hPa | 0 mm | - | 0 W/m² | - |
| 1777876406 | 20° C | 78% | 1017.5 hPa | 0 mm | - | 0 W/m² | - |
| 1777875804 | 20° C | 77% | 1017.9 hPa | 0 mm | - | 0 W/m² | - |
| 1777875203 | 20° C | 76% | 1017.9 hPa | 0 mm | - | 0 W/m² | - |
| 1777874601 | 20.56° C | 75% | 1017.9 hPa | 0 mm | - | 0 W/m² | - |
| 1777873997 | 20.56° C | 75% | 1017.4 hPa | 0 mm | - | 0 W/m² | - |
| 1777873398 | 20.56° C | 75% | 1017.5 hPa | 0 mm | - | 0 W/m² | - |
| 1777872796 | 20.56° C | 75% | 1017.4 hPa | 0 mm | - | 0 W/m² | - |
| 1777872192 | 20.56° C | 75% | 1018 hPa | 0 mm | - | 0 W/m² | - |
| 1777871591 | 20.56° C | 74% | 1017.9 hPa | 0 mm | - | 0 W/m² | - |
| 1777870991 | 21.11° C | 73% | 1018.1 hPa | 0 mm | - | 0 W/m² | - |
| 1777870388 | 21.11° C | 72% | 1018.1 hPa | 0 mm | - | 0 W/m² | - |
| 1777869783 | 21.67° C | 71% | 1018.3 hPa | 0 mm | - | 0 W/m² | - |
| 1777869183 | 21.67° C | 71% | 1018 hPa | 0 mm | - | 0 W/m² | - |
| 1777868582 | 21.67° C | 71% | 1018.5 hPa | 0 mm | - | 0 W/m² | - |
| 1777867980 | 21.67° C | 71% | 1018.5 hPa | 0 mm | - | 0 W/m² | - |
| 1777867381 | 21.67° C | 70% | 1018.4 hPa | 0 mm | - | 0 W/m² | - |
| 1777866779 | 22.22° C | 69% | 1018.7 hPa | 0 mm | - | 0 W/m² | - |
* Rain latest hour (hover to see other rain measurements)
** Current wind speed in m/s (hover to see current wind gust speed)